Wind_Speed
29 27 31 29 20 15 7 6 7 9 12 14 16 15 19 24 35 37 40 36 31 25 19 16 13 10 7 7 10 11 10 10 13 8 7 8 13 9 8 6 8 8 11 12
27 28 29 24 20 18 11 3 4 10 8 0 8 12 21 29 37 37 40 37 32 26 25 22 19 14 10 9 10 9 12 8 10 9 10 9 8 10 8 7 7 8 9 11
30 18 25 27 22 22 14 8 7 7 15 12 4 14 26 24 36 36 36 35 33 31 28 26 23 15 10 10 10 8 10 8 11 10 9 8 10 8 8 6 5 7 9 10
25 24 11 20 23 24 18 12 7 14 18 12 8 7 23 24 34 40 35 34 35 32 27 25 21 14 6 5 9 10 11 10 10 9 9 10 10 9 8 5 5 6 7 10
14 16 16 15 21 20 18 8 9 15 24 17 16 8 12 28 22 33 37 36 35 31 28 24 22 10 4 2 5 10 13 13 11 9 9 12 12 8 8 8 5 5 6 9
21 15 12 15 15 15 10 4 3 16 19 7 18 19 13 29 30 18 40 40 38 35 33 29 21 15 9 8 5 10 15 15 12 10 9 11 9 11 10 9 8 6 6 6
19 20 17 17 15 15 16 14 7 3 3 6 10 17 6 19 23 9 34 43 41 37 38 37 30 23 16 9 6 12 14 16 13 11 10 11 10 12 11 11 9 7 6 5
5 7 19 17 17 11 13 19 8 6 5 4 5 9 9 15 24 20 27 39 38 40 38 38 24 26 22 10 7 8 7 13 14 12 11 13 12 13 11 11 9 9 7 7
2 6 11 13 10 15 11 16 15 4 6 5 8 7 9 13 20 36 25 37 38 40 36 36 31 31 31 18 15 13 8 4 13 14 13 12 15 17 12 13 12 11 8 8
8 6 6 12 16 14 16 14 10 8 5 3 1 3 3 13 26 31 29 30 37 37 36 21 17 25 24 25 20 15 15 13 14 16 16 15 14 17 15 16 11 13 11 9
16 10 4 9 13 17 13 15 7 8 4 6 3 2 4 16 23 29 33 34 34 31 30 34 17 19 29 26 24 21 17 17 17 20 19 19 19 17 18 17 16 12 13 12
12 8 10 5 6 12 12 15 14 7 4 7 7 4 9 16 21 24 29 27 26 27 27 28 25 24 26 26 33 12 23 27 24 23 22 20 22 22 21 19 17 15 15 16
7 4 6 8 8 10 11 13 12 13 10 10 8 6 12 15 17 20 21 25 24 22 28 27 23 24 23 21 20 20 36 38 34 30 25 23 22 22 21 20 18 17 16 15
6 8 7 9 4 7 3 6 10 9 9 12 10 19 20 16 15 14 16 11 13 15 23 29 21 22 25 23 21 26 15 21 34 31 30 26 25 25 24 23 21 21 19 18
7 10 15 16 9 4 4 4 9 11 8 11 15 18 21 19 19 20 17 17 2 10 16 21 23 26 25 27 19 22 15 16 16 30 24 26 30 31 30 28 27 25 22 21
7 8 5 6 5 8 6 4 6 12 15 16 21 25 21 23 21 21 17 20 12 19 17 17 20 26 26 25 24 22 14 10 11 10 5 2 10 41 29 32 31 28 27 25
5 10 9 4 7 8 4 10 4 12 18 18 29 20 26 26 22 20 14 14 15 13 12 17 20 23 23 22 25 19 16 15 20 10 12 12 9 11 23 16 37 36 29 28
4 4 1 3 3 4 4 6 7 5 14 22 20 20 23 24 22 17 14 8 7 4 8 15 16 16 14 15 16 14 12 13 14 12 11 11 12 12 10 7 6 36 36 31
3 1 1 1 6 9 4 8 5 2 6 6 11 25 26 24 20 21 18 17 13 11 11 13 15 16 16 15 15 13 11 12 14 13 12 14 16 15 17 16 16 11 25 35
6 6 5 3 2 4 28 6 5 10 9 14 15 13 24 27 25 24 20 15 13 14 17 16 12 13 14 13 13 12 12 10 9 9 9 9 10 12 14 17 23 22 20 33
5 3 6 8 3 3 9 24 26 17 9 9 12 12 17 14 16 15 21 14 8 10 12 11 11 12 11 13 14 15 15 15 15 15 15 15 15 16 17 17 17 20 23 30
3 3 4 6 5 4 14 14 21 17 15 19 19 18 18 16 18 15 13 11 7 2 9 11 9 12 16 19 20 19 19 20 20 21 21 22 22 23 23 24 25 26 26 26
3 3 3 3 7 7 5 10 14 17 16 16 22 19 23 18 17 15 12 12 15 14 11 13 15 19 22 25 25 25 25 25 25 25 27 28 28 29 29 30 31 32 31 30
7 7 6 7 8 6 7 6 6 7 10 16 20 23 23 20 20 16 15 15 15 14 17 21 22 25 26 24 24 26 27 29 29 29 30 31 32 32 33 33 34 34 34 33
8 10 8 8 8 9 7 7 8 4 5 10 18 19 23 21 20 20 19 18 20 23 23 25 24 23 23 22 22 22 23 23 24 25 27 27 27 28 28 31 34 36 37 36
13 13 12 11 11 12 10 10 10 12 13 11 11 13 16 17 18 19 21 22 23 24 25 24 25 25 25 24 23 21 22 22 21 21 22 22 22 22 21 20 20 21 23 24
Wind_Direction
183 197 200 197 199 194 174 64 116 177 208 234 238 196 172 181 183 182 182 188 193 199 193 205 209 238 252 248 214 201 205 172 165 171 144 126 120 148 147 141 146 156 158 155
191 205 201 208 210 206 211 163 102 136 142 260 181 202 197 187 185 181 184 189 194 202 202 208 208 236 261 223 209 203 196 184 170 175 177 168 163 137 137 148 154 156 160 164
196 213 212 214 211 213 211 209 190 177 151 128 169 186 196 198 192 186 187 194 199 203 206 211 213 238 249 216 207 192 204 193 190 187 180 184 178 159 141 140 159 155 171 173
205 205 204 214 215 212 212 207 233 213 184 176 259 210 204 206 194 194 195 195 203 204 211 215 221 235 201 205 207 205 211 206 208 179 190 188 191 175 166 163 168 154 167 169
206 207 208 219 202 197 204 217 261 252 213 216 210 206 207 196 221 211 202 198 207 207 212 216 224 218 203 166 218 210 214 217 211 195 192 190 193 189 164 170 185 167 144 168
221 202 220 216 182 194 200 241 254 218 195 225 229 205 196 195 185 188 203 200 208 210 218 223 225 228 223 217 223 220 215 221 216 210 206 195 202 188 178 182 183 187 170 165
229 239 215 209 227 224 226 206 137 95 177 221 220 210 216 207 197 196 193 198 206 214 218 220 220 222 225 227 220 225 210 218 220 216 218 207 210 198 181 183 188 190 197 164
221 212 204 208 222 217 219 206 178 157 187 224 215 214 207 217 207 191 209 202 204 215 223 222 217 216 219 209 206 184 194 217 222 214 220 213 202 198 203 201 196 203 195 183
232 210 194 214 210 209 182 192 210 147 140 149 175 231 242 201 196 205 210 201 207 213 222 225 218 211 223 209 202 191 193 229 217 211 217 222 215 203 211 212 218 219 207 201
244 257 227 196 205 215 216 201 186 196 139 148 177 170 180 192 192 198 201 202 207 213 221 225 245 222 218 214 212 214 209 221 203 206 209 215 220 218 223 219 229 214 217 218
231 240 211 204 217 211 187 195 180 179 151 145 142 238 196 175 193 200 197 202 204 208 216 216 228 227 217 211 215 218 225 230 215 202 211 216 209 214 225 228 230 227 233 228
197 229 237 180 159 208 201 208 207 194 150 116 124 182 177 186 205 208 210 212 211 214 221 221 227 232 221 224 230 222 238 229 227 212 206 211 208 207 211 215 222 233 228 230
168 184 185 191 146 146 164 168 186 198 154 160 136 190 201 201 200 207 217 220 232 232 216 225 225 224 231 233 241 245 258 254 220 225 209 208 212 208 208 213 213 215 214 221
122 111 108 104 104 59 91 162 176 189 182 171 176 170 181 193 198 212 189 185 201 207 222 234 254 237 229 231 243 234 263 225 217 225 225 215 219 223 220 218 220 222 216 215
165 117 85 93 96 66 13 180 193 187 199 205 184 181 191 189 184 174 169 171 155 223 216 228 233 229 227 232 238 222 233 196 205 217 225 240 234 236 235 231 227 227 226 223
199 184 147 125 149 67 64 77 212 213 207 211 189 173 177 184 193 205 207 215 207 222 243 238 223 218 220 222 222 221 229 208 176 158 52 153 254 229 235 244 235 234 232 230
151 211 209 122 94 197 352 20 52 198 200 207 178 196 179 190 196 207 216 186 186 212 235 226 215 216 222 210 208 214 221 216 192 184 181 181 134 171 225 274 239 233 228 235
98 184 232 192 189 69 23 7 27 246 193 184 198 193 194 193 182 180 183 196 192 224 211 192 188 177 165 162 178 187 191 197 200 206 208 201 211 205 192 215 165 231 227 234
251 262 83 175 165 144 170 65 111 39 138 183 208 181 181 181 182 183 183 183 183 189 192 173 157 153 153 153 154 161 168 171 183 193 204 220 228 237 234 229 230 242 216 216
264 263 237 153 141 196 212 188 289 9 152 173 194 204 181 186 185 188 183 182 189 194 176 186 198 173 169 172 173 180 188 198 209 208 209 218 226 236 240 241 238 238 224 216
193 180 208 190 183 188 181 206 242 262 257 217 206 212 202 208 221 203 185 169 171 191 203 211 202 215 223 216 209 208 211 215 219 227 233 239 243 249 256 259 253 249 247 237
169 183 193 202 194 208 186 190 204 250 256 228 216 219 223 221 214 219 210 208 211 251 249 240 249 248 243 243 243 243 239 237 238 239 241 243 247 251 253 258 260 261 262 259
203 197 194 202 214 212 213 212 220 239 247 236 226 218 214 218 223 223 225 209 210 217 235 267 268 261 254 251 251 252 250 251 249 247 247 247 246 248 251 256 258 258 257 257
220 222 227 229 232 227 221 237 245 230 209 219 220 219 217 218 219 230 235 248 257 262 265 268 268 266 267 262 256 253 252 254 255 254 253 253 254 254 254 254 255 257 257 258
235 239 243 245 245 255 250 246 251 242 225 218 206 211 213 213 226 230 236 246 253 259 267 276 273 268 267 266 263 259 254 253 252 252 253 255 256 258 257 254 254 255 257 259
260 252 247 249 255 257 257 232 238 261 239 219 212 221 228 228 228 235 239 245 249 255 265 264 264 266 267 266 263 260 258 256 251 248 245 246 248 251 254 255 255 256 260 262
Height
3129 3132 3133 3140 3144 3148 3151 3154 3155 3157 3157 3159 3153 3162 3162 3163 3170 3173 3178 3183 3187 3192 3195 3200 3204 3207 3208 3211 3214 3216 3217 3218 3220 3222 3223 3223 3225 3226 3226 3227 3228 3230 3231 3233
3129 3129 3135 3141 3144 3147 3150 3153 3154 3156 3157 3159 3156 3160 3164 3166 3171 3175 3180 3183 3187 3191 3194 3199 3203 3206 3208 3211 3214 3216 3217 3218 3221 3223 3224 3224 3226 3227 3228 3229 3230 3231 3232 3235
3126 3131 3134 3138 3142 3145 3148 3151 3154 3156 3157 3161 3159 3164 3166 3168 3172 3176 3180 3184 3188 3189 3194 3199 3202 3205 3208 3210 3213 3214 3217 3219 3221 3223 3224 3225 3227 3228 3228 3230 3231 3232 3233 3235
3126 3129 3131 3134 3137 3142 3147 3150 3153 3156 3156 3159 3161 3164 3164 3165 3169 3173 3178 3183 3186 3190 3195 3199 3202 3205 3208 3210 3212 3214 3216 3219 3221 3223 3224 3226 3228 3229 3230 3231 3232 3233 3234 3235
3125 3127 3130 3131 3134 3140 3145 3149 3151 3151 3155 3156 3156 3162 3159 3164 3165 3168 3175 3179 3184 3187 3191 3195 3200 3204 3207 3209 3211 3214 3216 3218 3220 3223 3224 3226 3228 3230 3231 3232 3234 3235 3235 3237
3122 3124 3127 3131 3135 3139 3144 3146 3147 3149 3154 3156 3151 3155 3154 3155 3158 3165 3167 3174 3179 3184 3188 3193 3198 3202 3206 3209 3211 3213 3215 3218 3219 3222 3224 3226 3228 3230 3231 3233 3235 3236 3238 3238
3121 3122 3124 3127 3130 3135 3138 3142 3148 3154 3156 3152 3149 3153 3154 3154 3158 3158 3160 3168 3176 3182 3186 3190 3195 3199 3203 3206 3210 3211 3214 3216 3219 3222 3223 3225 3227 3230 3231 3233 3235 3237 3238 3239
3119 3121 3121 3123 3127 3131 3132 3137 3138 3147 3151 3146 3148 3150 3150 3152 3157 3160 3163 3168 3174 3179 3182 3186 3191 3197 3201 3204 3209 3211 3213 3215 3218 3221 3223 3224 3226 3229 3230 3232 3234 3236 3237 3238
3117 3117 3119 3122 3125 3129 3130 3132 3137 3137 3141 3142 3146 3147 3147 3149 3153 3158 3162 3168 3173 3176 3180 3183 3187 3189 3192 3199 3206 3210 3212 3213 3215 3219 3222 3224 3226 3228 3230 3231 3232 3235 3236 3238
3116 3116 3116 3119 3122 3125 3127 3131 3133 3134 3140 3144 3144 3144 3145 3146 3149 3154 3158 3163 3169 3174 3177 3183 3182 3183 3193 3197 3203 3208 3209 3211 3211 3215 3218 3221 3225 3228 3229 3230 3232 3234 3235 3236
3113 3115 3117 3117 3119 3121 3124 3125 3128 3130 3132 3137 3144 3143 3144 3146 3149 3152 3156 3160 3166 3172 3175 3179 3181 3184 3190 3196 3201 3204 3207 3208 3209 3210 3214 3217 3220 3223 3225 3228 3231 3233 3234 3235
3112 3113 3114 3116 3116 3118 3120 3123 3125 3126 3131 3132 3137 3143 3141 3144 3149 3151 3155 3159 3164 3170 3173 3176 3180 3183 3185 3192 3195 3197 3202 3205 3207 3208 3210 3213 3216 3218 3220 3223 3226 3229 3232 3233
3111 3112 3113 3115 3118 3117 3118 3120 3122 3124 3126 3129 3134 3142 3142 3144 3149 3152 3154 3158 3163 3168 3170 3174 3179 3181 3184 3188 3189 3193 3194 3196 3199 3205 3206 3210 3213 3216 3218 3221 3223 3225 3227 3230
3112 3112 3112 3114 3117 3118 3118 3119 3120 3123 3124 3126 3130 3134 3140 3144 3148 3152 3156 3158 3161 3164 3169 3173 3175 3179 3182 3186 3189 3190 3188 3186 3193 3200 3205 3206 3209 3213 3215 3217 3220 3222 3224 3226
3114 3114 3114 3114 3117 3118 3117 3118 3119 3121 3124 3125 3127 3131 3136 3142 3145 3150 3153 3158 3163 3167 3168 3170 3171 3174 3178 3182 3184 3187 3189 3186 3188 3192 3198 3202 3206 3209 3210 3213 3215 3218 3221 3224
3112 3114 3115 3115 3118 3117 3117 3116 3117 3119 3121 3123 3125 3129 3136 3140 3144 3148 3153 3156 3157 3163 3166 3168 3171 3172 3176 3178 3182 3185 3186 3187 3188 3193 3193 3198 3196 3201 3205 3208 3209 3213 3217 3220
3111 3113 3113 3115 3116 3117 3118 3115 3115 3116 3117 3120 3122 3126 3130 3137 3140 3144 3147 3152 3158 3161 3161 3163 3167 3169 3172 3174 3178 3180 3182 3185 3187 3189 3194 3197 3196 3199 3203 3201 3201 3206 3209 3214
3112 3113 3114 3114 3114 3119 3124 3118 3116 3116 3117 3119 3122 3127 3131 3134 3139 3143 3148 3152 3155 3157 3160 3161 3165 3167 3170 3172 3176 3179 3181 3184 3187 3190 3191 3193 3193 3195 3197 3200 3198 3200 3201 3206
3112 3113 3114 3114 3115 3119 3119 3118 3120 3122 3121 3120 3121 3124 3128 3134 3140 3144 3147 3150 3152 3156 3160 3164 3167 3167 3170 3171 3174 3178 3180 3182 3185 3187 3189 3190 3190 3193 3195 3197 3197 3196 3197 3202
3111 3112 3115 3115 3115 3117 3118 3119 3121 3124 3123 3122 3124 3126 3129 3133 3138 3142 3147 3150 3153 3157 3157 3162 3167 3169 3171 3173 3175 3177 3179 3180 3182 3185 3187 3188 3189 3190 3191 3193 3194 3196 3199 3202
3112 3112 3114 3114 3115 3115 3115 3117 3121 3124 3127 3125 3126 3129 3131 3134 3138 3141 3145 3150 3152 3155 3158 3162 3163 3166 3168 3171 3173 3175 3177 3179 3180 3181 3183 3185 3186 3188 3189 3189 3191 3193 3194 3196
3112 3112 3113 3113 3114 3116 3116 3118 3120 3120 3120 3122 3124 3126 3131 3135 3137 3140 3144 3148 3151 3154 3157 3160 3162 3165 3166 3167 3169 3171 3172 3174 3175 3176 3178 3180 3182 3183 3184 3185 3185 3186 3187 3188
3112 3111 3112 3114 3113 3113 3113 3116 3118 3119 3119 3118 3119 3122 3127 3131 3134 3137 3140 3144 3148 3152 3155 3157 3158 3160 3162 3163 3165 3166 3166 3167 3169 3170 3171 3172 3174 3176 3177 3178 3178 3179 3180 3180
3109 3109 3110 3112 3111 3113 3113 3114 3114 3115 3115 3116 3120 3122 3124 3128 3132 3136 3139 3143 3145 3149 3152 3153 3154 3153 3154 3155 3157 3158 3160 3162 3162 3162 3164 3165 3166 3167 3168 3169 3170 3171 3172 3173
3108 3108 3108 3109 3109 3110 3113 3113 3115 3116 3116 3117 3118 3121 3124 3127 3131 3135 3138 3141 3142 3142 3144 3144 3145 3146 3148 3149 3150 3151 3152 3154 3155 3156 3157 3158 3158 3159 3159 3161 3161 3162 3163 3164
3104 3105 3106 3107 3108 3109 3111 3112 3113 3114 3116 3117 3120 3122 3124 3126 3129 3132 3133 3135 3136 3137 3138 3138 3138 3139 3140 3141 3142 3143 3144 3145 3147 3148 3150 3151 3152 3152 3153 3154 3154 3154 3154 3155